Regional Weather Roundup
Issued by NWS Sterling, VA

Home | Current Version | Previous Version | Graphics & Text | Print | Product List | Glossary On
Versions: 1 2 3 4 5 6 7 8 9 10 11 12 13 14 15 16 17 18 19 20 21 22 23 24 25 26 27 28 29 30 31 32 33 34 35 36 37 38 39 40 41 42 43 44 45 46 47 48 49 50
135
ASUS41 KLWX 240011
RWRLWX

REGIONAL WEATHER ROUNDUP
NATIONAL WEATHER SERVICE BALTIMORE MD/WASHINGTON DC
700 PM EST TUE JAN 23 2018

Note: "FAIR" indicates few or no clouds below 12,000 feet
with no significant weather and/or obstructions to visibility.
 TC=TEMPERATURE CELSIUS

 * =Non NWS site. Station does not report precipitation (e.g. rain,
    snow, etc.), thunder, or fog.

DCZ001-MDZ009-015-VAZ040>042-051-053>054-240100-
WASHINGTON METRO

CITY           SKY/WX    TMP DP  RH WIND       PRES   REMARKS
WASHINGTON NAT FAIR      53  29  39 W6        29.79R
DULLES         FAIR      48  29  47 W22       29.79R
ANDREWS AFB    FAIR      51  28  40 NW16      29.76R
FT BELVOIR     FAIR      52  27  37 NW15G21   29.79R
QUANTICO       FAIR      53  28  38 NW12      29.80R
COLLEGE PARK*  FAIR      51  26  38 CALM      29.78R
LEESBURG*      FAIR      46  32  57 NW13G20   29.81R
MANASSAS*      FAIR      51  27  39 W15       29.81R

$$

MDZ006>007-011-014-240100-
BALTIMORE METRO

CITY           SKY/WX    TMP DP  RH WIND       PRES   REMARKS
BWI AIRPORT    FAIR      50  28  42 W16G23    29.76R
MD SCIENCE CTR   N/A     53  27  36 MISG      29.77R
MARTIN STATE   PTCLDY    52  30  43 W16G24    29.78R
ANNAPOLIS      FAIR      53  30  41 NW12      29.76R
FORT MEADE*    FAIR      46  30  53 W12       29.80R

$$

MDZ012-015-019>023-240100-
MARYLAND EASTERN SHORE

CITY           SKY/WX    TMP DP  RH WIND       PRES   REMARKS
OCEAN CITY     FAIR      54  46  74 NW14      29.73R
SALISBURY      FAIR      52  42  69 NW8       29.74R
BAY BRIDGE AP* FAIR      50  30  46 NW16G23   29.77R
CAMBRIDGE*     CLEAR     52  34  50 NW10G17   29.76R
EASTON*        CLEAR     50  34  53 NW9G16    29.79R

$$

MDZ017>025-240100-
SOUTHERN MARYLAND

CITY           SKY/WX    TMP DP  RH WIND       PRES   REMARKS
PATUXENT RIVER FAIR      51  36  56 NW9       29.75R
ST INIGOES     FAIR      53  40  61 CALM      29.75R
LEONARDTOWN*   FAIR      54  32  43 NW6       29.77R

$$

MDZ003>005-240100-
NORTH CENTRAL MARYLAND

CITY           SKY/WX    TMP DP  RH WIND       PRES   REMARKS
FREDERICK*     CLEAR     48  25  40 W3        29.82R
HAGERSTOWN APT MOCLDY    48  28  46 W22G38    29.77R
WESTMINSTER*   MOCLDY    46  30  53 W12G18    29.77R

$$

MDZ501>502-240100-
WESTERN MARYLAND

CITY           SKY/WX    TMP DP  RH WIND       PRES   REMARKS
OAKLAND*       CLOUDY    32  27  80 W16G29    29.79R WCI  21
CUMBERLAND*    CLOUDY    45  28  53 W8G26     29.87R

$$

VAZ025>031-240100-
SHENANDOAH VALLEY

CITY           SKY/WX    TMP DP  RH WIND       PRES   REMARKS
WINCHESTER*    CLOUDY    45  28  53 W5        29.83R
FRONT ROYAL*   FAIR      46  28  49 NW5       29.80R
LURAY*         FAIR      46  28  49 W14G21    29.83R
NEW MARKET*    FAIR      45  25  44 W7        29.82R
STAUNTON*      FAIR      45  25  46 W10       29.86R
WAYNESBORO*    FAIR      45  26  47 NW8       29.83R

$$

WVZ021-048>050-054>055-240100-
EASTERN WEST VIRGINIA PANHANDLE

CITY           SKY/WX    TMP DP  RH WIND       PRES   REMARKS
MARTINSBURG    CLOUDY    47  27  45 W23G29    29.80R
PETERSBURG*    FAIR      44  26  48 W26G39    29.85R

$$

VAZ036>039-050-240100-
CENTRAL FOOTHILLS

CITY           SKY/WX    TMP DP  RH WIND       PRES   REMARKS
CHARLOTTESVILL FAIR      52  25  35 CALM      29.82R
CULPEPER*      FAIR      49  24  38 CALM      29.83R
ORANGE*        FAIR      50  27  40 NW12      29.81R
GORDONSVILLE*  FAIR      50  28  41 W5        29.81R
WARRENTON*     FAIR      51  22  32 NW12G17   29.80R

$$

VAZ055>057-240100-
NORTH AND CENTRAL PIEDMONT

CITY           SKY/WX    TMP DP  RH WIND       PRES   REMARKS
FREDERICKSBRG* FAIR      55  29  37 NW15G22   29.78R
STAFFORD*      FAIR      53  28  38 NW13      29.84R

$$

NCZ024-NYZ072-PAZ021-071-VAZ022-071-240100-
OTHER REGIONAL OBSERVATIONS

CITY           SKY/WX    TMP DP  RH WIND       PRES   REMARKS
NEW YORK CITY  MOCLDY    52  37  56 W10G18    29.66R
PHILADELPHIA   FAIR      52  28  39 W14G23    29.72R
PITTSBURGH     LGT RAIN  37  34  89 W10       29.83R WCI  30
ROANOKE        FAIR      48  25  40 W16G26    29.90R
RICHMOND       FAIR      58  33  39 NW15      29.77R
RALEIGH        FAIR      59  30  33 W7        29.85R

$$

ANZ530>537-240100-
MARINE OBSERVATIONS

STATION/POSITION TIME  TEMP    WIND        PRES
                       AIR SEA DIR/SP/G
                 (UTC) (F)     (DEG/KT/KT) (MB)
THOMAS PT LIGHT  0000   53 34  310/ 18/ 20   N/A
BALT KEY BRIDGE  2336   51     280/ 14/ 17 1007.4R
COVE POINT       2336   50     350/ 15/ 16 1007.8R
LEWISETTA        2336   54 36  340/  5/  7 1007.2R
SOLOMONS ISLAND  2336   51 35  330/  8/ 12 1007.1R
PINEY POINT      2348          320/  6/  7   N/A

$$





USA.gov is the U.S. government's official web portal to all federal, state and local government web resources and services.